Dean International
Flight School

Career Spotlight

Mika

Mika

Congratulations to Mika from Khazakstan. She recently sent us this photo of her flying an Airbus airliner.

More...
Mika's Success Story
close

Congratulations to Mika from Khazakstan. She recently sent us this photo of her flying an Airbus airliner.

Mario

Mario

My dreams could not have been realized if I wouldn't have been part of the Dean International family.

More...
Mario's Success Story
close

"My dreams could not have been realized if I wouldn't have been part of the Dean International family. Thank you Robert, thanks to all my co-workers, and thanks to all of my students!"

Fernando

Fernando

I am now working as a First Officer at TACA and am enjoying every moment of it.

More...
Fernando's Success Story
close

"Will never forget my time of flight training at Dean International. I am now working as a First Officer at TACA and am enjoying every moment of it."

Alvaro

Alvaro

Because of the flight time I was able to built while instructing, I got the experience needed to apply to an airline in Colombia.

More...
Alvaro's Success Story
close

Dean alumnus Alvaro Londoño currently flies with Tampa Cargo. He says of his experience at Dean: "I want to take this opportunity to thank you for giving me the chance to build my experience and expand my knowledge in Dean International. Because of the flight time I was able to built flight instructing, I got the experience needed to apply to an airline in Colombia."

Ralph

Ralph

Every Aruban student of Dean International has made it into Tiara Air Aruba, that is very nice.

More...
Ralph's Success Story
close

"Next to me is my Co-Pilot, Elison. This picture was taken on our first flight together, which was almost exactly 5 years after I finished at Dean International. [...] Every Aruban student of Dean International has made it into Tiara Air Aruba. [...] The future looks bright here in Aruba."

Rohaan

Rohaan

The [..] staff will all work diligently to help you finish your certificates as safely and efficiently as possible.

More...
Rohaan's Success Story
close

After receiving very hard times from other flight schools [...], I came to Dean International where Robert Dean personally sat down with me and gave me a financial and chronological look into how much remained to finish my private pilot certificate. Through his hard efforts as an instructor and mentor, I was able to finish my private pilot certificate within one week.

Welcome to Dean International

In over two decades, Dean International has educated over 7,000 pilots from all over the world, including over 1,000 students from India alone. By offering a great training experience, a friendly service staff, an ample variety of aircraft, and by improving constantly, we have become one of the largest, most prestigious FAA 141-approved flight schools in North America. Located in Miami, Florida, USA, our flight school offers an ideal location for year-round, "learn to fly" weather, flight training. Dean International is not only well-equipped to provide services to professional trainees but also caters to General Aviation renters. Visit or contact our headquarters at Kendall-Tamiami Executive Airport located in Miami, FL today to learn more about us, or simply read more about our programs if you are an international student interested in joining our school.

Local Airport Information
TAF FOR KTMB (Issued: Sat, October 25th 2014 12:30 PM UTC)
TAF KTMB 251128Z 2512/2612 35011KT P6SM FEW040
      FM251400 01011KT P6SM FEW035
      FM260200 35004KT P6SM SKC
      FM260600 VRB03KT P6SM SKC
     
METAR FOR KTMB (Issued: Sat, October 25th 2014 2:53 PM UTC):
KTMB 251453Z 36012KT 10SM CLR 27/17 A2994 RMK AO2 SLP136 T02720167 51009

This weather information is provided by the National Weather Service.
It is automatically refreshed every three minutes.
TAF FOR KHST (Issued: Sat, October 25th 2014 11:39 AM UTC)
TAF
      AMD KHST 2511/2614 33008KT 9999 SCT020 QNH2986INS
      BECMG 2512/2513 36012KT 9999 FEW040 QNH2987INS TX27/2518Z TN18/2607Z
      AMD 251135
     
METAR FOR KHST (Issued: Sat, October 25th 2014 2:58 PM UTC):
KHST 251458Z AUTO 34013KT 10SM CLR 26/17 A2993 RMK AO2 SLP138 T02600173 50010

This weather information is provided by the National Weather Service.
It is automatically refreshed every three minutes.
TAF FOR KOPF (Issued: Sat, October 25th 2014 12:30 PM UTC)
TAF KOPF 251128Z 2512/2612 34011KT P6SM FEW040
      FM251400 36010KT P6SM FEW035
      FM260200 35006KT P6SM SKC
      FM260600 33004KT P6SM SKC
     
METAR FOR KOPF (Issued: Sat, October 25th 2014 2:53 PM UTC):
KOPF 251453Z 35012KT 10SM CLR 27/16 A2994 RMK AO2 SLP138 T02670156 51009 $

This weather information is provided by the National Weather Service.
It is automatically refreshed every three minutes.
TAF FOR KMIA (Issued: Sat, October 25th 2014 12:33 PM UTC)
TAF KMIA 251128Z 2512/2612 32006KT P6SM FEW040
      FM251400 36010G15KT P6SM FEW035
      FM260200 35004KT P6SM SKC
      FM260600 VRB03KT P6SM FEW250
     
METAR FOR KMIA (Issued: Sat, October 25th 2014 2:53 PM UTC):
KMIA 251453Z 36011G17KT 10SM CLR 27/15 A2993 RMK AO2 SLP135 T02670150 51009

This weather information is provided by the National Weather Service.
It is automatically refreshed every three minutes.
Design by Ariel Llizo
© Dean International Inc. 2012